Date String (YYYY-MM-DD hh:mm:ss) UTC,Instrument flags,absolute air pressure of the measurement (hPa),sample flow rate (lpm),inlet stack bypass flow (lpm),air temperature of the measurement (°C),ambient temperature measured by the external sensor (°C),aerosol sample conditioner tube jacket temperature (°C),OPC LED temperature (°C),internal box temperature (°C),relative humidity of the measurement (%),span deviation,mass concentration of particles derived from Lorenz-Mie calculation of OPC scattering (μg/m³),mass concentration of particles derived from Lorenz-Mie calculation of OPC scattering (μg/m³),mass concentration of particles derived from Lorenz-Mie calculation of OPC scattering (μg/m³)
DateTimeUTC,F1_M11,P_M11,Q1_M11,Q2_M11,T1_M11,T2_M11,T3_M11,T4_M11,T5_M11,U1_M11,ZSPAN_M11,X0_M11,X2_M11,X1_M11
2023-09-29 22:00:00,SystemResetWarning,0827.6,5.00,000.00,028.1,024.7,000.0,036.4,029.8,18.7,0000.0,0023.81,0005.65,0004.15
2023-09-29 22:01:00,SystemResetWarning,0827.6,5.01,000.00,028.1,024.3,000.0,036.3,029.7,18.8,0000.0,0024.05,0005.62,0004.13
2023-09-29 22:02:00,SystemResetWarning,0827.6,5.02,000.00,028.0,024.6,000.0,036.3,029.6,18.7,0000.0,0025.51,0005.66,0004.14
2023-09-29 22:03:00,SystemResetWarning,0827.5,5.00,000.00,027.9,025.0,000.0,036.3,029.6,18.7,0000.0,0024.82,0005.67,0004.15
2023-09-29 22:04:00,SystemResetWarning,0827.5,5.00,000.00,027.9,025.4,000.0,036.4,029.6,18.7,0000.0,0023.97,0005.66,0004.15
2023-09-29 22:05:00,SystemResetWarning,0827.6,5.00,000.00,028.0,025.9,000.0,036.4,029.7,18.7,0000.0,0023.09,0005.67,0004.15
2023-09-29 22:06:00,SystemResetWarning,0827.6,5.01,000.00,028.0,026.2,000.0,036.4,029.8,19.0,0000.0,0023.13,0005.69,0004.15
2023-09-29 22:07:00,SystemResetWarning,0827.6,5.00,000.00,028.0,026.6,000.0,036.4,029.9,18.8,0000.0,0021.88,0005.65,0004.16
2023-09-29 22:08:00,SystemResetWarning,0827.6,4.99,000.00,028.1,026.8,000.0,036.4,030.0,18.7,0000.0,0021.34,0005.65,0004.16
2023-09-29 22:09:00,SystemResetWarning,0827.6,4.99,000.00,028.2,027.0,000.0,036.5,030.1,18.3,0000.0,0021.50,0005.64,0004.17
2023-09-29 22:10:00,SystemResetWarning,0827.5,5.00,000.00,028.2,025.8,000.0,036.4,029.9,18.2,0000.0,0021.35,0005.68,0004.17
2023-09-29 22:11:00,SystemResetWarning,0827.5,5.00,000.00,028.1,024.5,000.0,036.4,029.7,18.3,0000.0,0020.33,0005.73,0004.18
2023-09-29 22:12:00,SystemResetWarning,0827.5,5.01,000.00,028.0,024.4,000.0,036.3,029.6,18.1,0000.0,0020.06,0005.80,0004.20
2023-09-29 22:13:00,SystemResetWarning,0827.5,5.01,000.00,027.9,024.8,000.0,036.3,029.5,18.3,0000.0,0021.57,0005.84,0004.21
2023-09-29 22:14:00,SystemResetWarning,0827.8,4.99,000.00,027.9,025.2,000.0,036.4,029.6,18.2,0000.0,0021.26,0005.89,0004.21
2023-09-29 22:15:00,SystemResetWarning,0827.5,4.99,000.00,027.9,025.6,000.0,036.4,029.6,18.1,0000.0,0022.14,0005.90,0004.20
2023-09-29 22:16:00,SystemResetWarning,0827.5,5.00,000.00,027.9,026.0,000.0,036.4,029.7,17.6,0000.0,0023.68,0005.89,0004.20
2023-09-29 22:17:00,SystemResetWarning,0827.5,5.01,000.00,028.0,026.4,000.0,036.4,029.8,17.7,0000.0,0023.85,0005.90,0004.20
2023-09-29 22:18:00,SystemResetWarning,0827.6,5.00,000.00,028.0,026.7,000.0,036.4,029.9,17.7,0000.0,0022.55,0005.88,0004.20
2023-09-29 22:19:00,SystemResetWarning,0827.6,5.01,000.00,028.1,026.9,000.0,036.4,030.0,17.7,0000.0,0023.24,0005.91,0004.19
2023-09-29 22:20:00,SystemResetWarning,0827.6,4.99,000.00,028.2,026.7,000.0,036.4,030.0,17.8,0000.0,0023.95,0005.97,0004.20
2023-09-29 22:21:00,SystemResetWarning,0827.6,4.98,000.00,028.1,025.2,000.0,036.4,029.8,17.6,0000.0,0023.97,0005.99,0004.20
2023-09-29 22:22:00,SystemResetWarning,0827.6,5.02,000.00,028.0,024.3,000.0,036.3,029.7,17.3,0000.0,0024.28,0005.96,0004.19
2023-09-29 22:23:00,SystemResetWarning,0827.5,5.00,000.00,028.0,024.5,000.0,036.3,029.6,17.3,0000.0,0024.02,0005.95,0004.19
2023-09-29 22:24:00,SystemResetWarning,0827.6,5.00,000.00,027.9,024.9,000.0,036.3,029.5,17.8,0000.0,0021.84,0005.93,0004.19
2023-09-29 22:25:00,SystemResetWarning,0827.6,5.00,000.00,027.9,025.3,000.0,036.3,029.6,17.6,0000.0,0021.31,0005.88,0004.19
2023-09-29 22:26:00,SystemResetWarning,0827.6,5.00,000.00,027.9,025.7,000.0,036.3,029.7,17.7,0000.0,0020.67,0005.86,0004.20
2023-09-29 22:27:00,SystemResetWarning,0827.7,5.00,000.00,028.0,026.1,000.0,036.4,029.8,17.6,0000.0,0019.59,0005.85,0004.21
2023-09-29 22:28:00,SystemResetWarning,0827.7,5.00,000.00,028.0,026.5,000.0,036.4,029.8,17.6,0000.0,0018.43,0005.83,0004.21
2023-09-29 22:29:00,SystemResetWarning,0827.7,5.00,000.00,028.1,026.8,000.0,036.4,029.9,17.4,0000.0,0018.62,0005.86,0004.21
2023-09-29 22:30:00,SystemResetWarning,0827.7,5.00,000.00,028.1,027.0,000.0,036.4,030.0,17.6,0000.0,0018.74,0005.87,0004.21
2023-09-29 22:31:00,SystemResetWarning,0827.7,4.98,000.00,028.2,026.3,000.0,036.4,030.0,17.6,0000.0,0018.13,0005.78,0004.21
2023-09-29 22:32:00,SystemResetWarning,0827.6,5.00,000.00,028.1,024.7,000.0,036.4,029.7,17.3,0000.0,0017.51,0005.68,0004.21
2023-09-29 22:33:00,SystemResetWarning,0827.6,5.02,000.00,028.0,024.3,000.0,036.3,029.6,17.2,0000.0,0016.56,0005.63,0004.22
2023-09-29 22:34:00,SystemResetWarning,0827.5,5.01,000.00,028.0,024.6,000.0,036.3,029.6,17.4,0000.0,0015.88,0005.56,0004.21
2023-09-29 22:35:00,SystemResetWarning,0827.6,5.00,000.00,027.9,025.0,000.0,036.3,029.6,17.6,0000.0,0015.30,0005.54,0004.20
2023-09-29 22:36:00,SystemResetWarning,0827.6,5.01,000.00,027.9,025.5,000.0,036.3,029.6,17.9,0000.0,0015.33,0005.57,0004.20
2023-09-29 22:37:00,SystemResetWarning,0827.7,5.00,000.00,027.9,025.9,000.0,036.4,029.7,18.0,0000.0,0014.80,0005.52,0004.20
2023-09-29 22:38:00,SystemResetWarning,0827.7,5.00,000.00,028.0,026.3,000.0,036.4,029.8,17.9,0000.0,0014.30,0005.49,0004.19
2023-09-29 22:39:00,SystemResetWarning,0827.7,5.00,000.00,028.0,026.6,000.0,036.4,029.9,17.7,0000.0,0014.84,0005.49,0004.18
2023-09-29 22:40:00,SystemResetWarning,0827.7,5.00,000.00,028.1,026.9,000.0,036.4,030.0,17.5,0000.0,0015.82,0005.53,0004.19
2023-09-29 22:41:00,SystemResetWarning,0827.7,5.00,000.00,028.2,027.0,000.0,036.4,030.1,17.4,0000.0,0015.49,0005.55,0004.21
2023-09-29 22:42:00,SystemResetWarning,0827.7,4.98,000.00,028.2,025.8,000.0,036.4,030.0,17.6,0000.0,0015.21,0005.55,0004.21
2023-09-29 22:43:00,SystemResetWarning,0827.7,5.00,000.00,028.1,024.5,000.0,036.4,029.7,17.9,0000.0,0015.92,0005.59,0004.21
2023-09-29 22:44:00,SystemResetWarning,0827.7,5.01,000.00,028.0,024.4,000.0,036.3,029.6,17.9,0000.0,0016.96,0005.71,0004.20
2023-09-29 22:45:00,SystemResetWarning,0827.7,5.01,000.00,027.9,024.7,000.0,036.3,029.5,17.5,0000.0,0019.43,0005.77,0004.21
2023-09-29 22:46:00,SystemResetWarning,0827.7,5.00,000.00,027.9,025.2,000.0,036.3,029.6,17.5,0000.0,0021.22,0005.84,0004.21
2023-09-29 22:47:00,SystemResetWarning,0827.7,5.00,000.00,027.9,025.6,000.0,036.4,029.7,17.3,0000.0,0022.04,0005.84,0004.23
2023-09-29 22:48:00,SystemResetWarning,0827.7,5.00,000.00,028.0,026.0,000.0,036.4,029.8,17.5,0000.0,0022.85,0005.85,0004.24
2023-09-29 22:49:00,SystemResetWarning,0827.7,5.00,000.00,028.0,026.4,000.0,036.4,029.8,17.3,0000.0,0022.88,0005.86,0004.24
2023-09-29 22:50:00,SystemResetWarning,0827.7,5.00,000.00,028.1,026.7,000.0,036.4,029.9,17.3,0000.0,0022.89,0005.88,0004.24
2023-09-29 22:51:00,SystemResetWarning,0827.7,5.00,000.00,028.1,027.0,000.0,036.4,030.0,17.4,0000.0,0022.69,0005.86,0004.23
2023-09-29 22:52:00,SystemResetWarning,0827.7,4.99,000.00,028.2,026.8,000.0,036.4,030.1,17.3,0000.0,0024.83,0005.84,0004.21
2023-09-29 22:53:00,SystemResetWarning,0827.7,4.99,000.00,028.2,025.1,000.0,036.4,029.9,17.3,0000.0,0025.36,0005.92,0004.22
2023-09-29 22:54:00,SystemResetWarning,0827.7,5.01,000.00,028.1,024.2,000.0,036.3,029.7,17.4,0000.0,0024.31,0005.94,0004.23
2023-09-29 22:55:00,SystemResetWarning,0827.7,5.02,000.00,028.0,024.4,000.0,036.3,029.6,17.7,0000.0,0024.08,0005.92,0004.24
2023-09-29 22:56:00,SystemResetWarning,0827.7,5.00,000.00,027.9,024.8,000.0,036.3,029.5,17.6,0000.0,0022.44,0005.92,0004.24
2023-09-29 22:57:00,SystemResetWarning,0827.7,5.00,000.00,027.9,025.2,000.0,036.3,029.6,17.8,0000.0,0022.16,0005.93,0004.25
2023-09-29 22:58:00,SystemResetWarning,0827.7,5.01,000.00,027.9,025.7,000.0,036.3,029.7,17.7,0000.0,0021.61,0005.91,0004.24
2023-09-29 22:59:00,SystemResetWarning,0827.7,5.00,000.00,028.0,026.1,000.0,036.4,029.8,17.7,0001.0,0020.42,0005.89,0004.24
